Location: C�mpuri de-Sus
(45.9500°N, 22.5500°E)
Time: 04:36:53
(UTC+00:00)

Cosmos 1605 Rocket - Pass Details

Date: 24 October 2021
Orbit: 945 x 1005 km, 82.9° (Epoch: 30 November)

Event Time Altitude Azimuth Distance (km) Brightness Sun altitude
Rises 16:55:32 0° 182° (S) 3,662 7.1 -15.8°
Reaches altitude 10° 16:58:01 10° 181° (S) 2,727 6.4 -16.2°
Maximum altitude 17:04:16 79° 96° (E) 1,015 3.9 -17.3°
Drops below altitude 10° 17:10:40 10° 11° (N) 2,781 6.3 -18.4°
Sets 17:13:13 0° 10° (N) 3,740 7.0 -18.9°
